QPF
0.01 0.02 0.03 0.05 0.04 0.04 0.04 0.04 0.04 0.03 0.04 0.04 0.05 0.05 0.03 0.05 0.05 0.04 0.03 0.03 0.03 0.03 0.04 0.06 0.08 0.07 0.06 0.06 0.04 0.03 0.03 0.03 0.03 0.03 0.02 0.02 0.01 0.01 0.01 0.01 0.01 0.01 0.03
0.01 0.01 0.02 0.04 0.04 0.04 0.05 0.03 0.03 0.03 0.03 0.05 0.05 0.05 0.04 0.05 0.05 0.05 0.04 0.03 0.04 0.04 0.05 0.06 0.06 0.06 0.06 0.06 0.04 0.02 0.01 0.01 0.01 0.01 0.01 0.01 0.01 0.01 0.01 0.01 0.01 0.02 0.02
0.01 0.01 0.02 0.03 0.03 0.03 0.05 0.05 0.02 0.02 0.02 0.04 0.05 0.05 0.05 0.05 0.04 0.04 0.04 0.04 0.05 0.06 0.05 0.05 0.04 0.04 0.04 0.04 0.03 0.01 0.01 0.01 0.01 0.01 0.00 0.01 0.01 0.01 0.01 0.01 0.01 0.02 0.02
0.01 0.01 0.01 0.02 0.03 0.03 0.04 0.04 0.03 0.02 0.03 0.04 0.04 0.04 0.03 0.03 0.04 0.04 0.04 0.04 0.06 0.06 0.04 0.03 0.03 0.03 0.02 0.01 0.02 0.02 0.01 0.01 0.00 0.00 0.00 0.01 0.01 0.01 0.02 0.02 0.02 0.02 0.03
0.01 0.01 0.01 0.02 0.03 0.03 0.03 0.04 0.03 0.04 0.03 0.05 0.04 0.03 0.02 0.02 0.03 0.03 0.04 0.05 0.05 0.04 0.02 0.02 0.02 0.02 0.02 0.01 0.01 0.01 0.01 0.00 0.00 0.01 0.02 0.03 0.03 0.03 0.02 0.02 0.03 0.02 0.03
0.01 0.01 0.01 0.02 0.04 0.04 0.03 0.03 0.03 0.03 0.04 0.04 0.04 0.03 0.04 0.04 0.03 0.03 0.03 0.03 0.03 0.03 0.02 0.02 0.02 0.02 0.02 0.01 0.01 0.01 0.01 0.01 0.01 0.01 0.02 0.02 0.03 0.05 0.05 0.04 0.04 0.04 0.03
0.01 0.01 0.02 0.03 0.04 0.05 0.04 0.05 0.04 0.04 0.04 0.05 0.06 0.06 0.07 0.06 0.03 0.02 0.02 0.02 0.02 0.02 0.02 0.02 0.02 0.02 0.02 0.01 0.01 0.01 0.01 0.01 0.01 0.01 0.01 0.01 0.03 0.05 0.05 0.04 0.03 0.03 0.03
0.01 0.01 0.01 0.02 0.05 0.05 0.04 0.04 0.05 0.04 0.05 0.06 0.08 0.10 0.09 0.07 0.05 0.03 0.02 0.02 0.02 0.02 0.02 0.02 0.02 0.02 0.02 0.02 0.01 0.01 0.01 0.01 0.01 0.01 0.01 0.01 0.03 0.03 0.04 0.03 0.03 0.03 0.03
0.01 0.02 0.02 0.03 0.03 0.04 0.05 0.05 0.05 0.04 0.05 0.05 0.06 0.08 0.07 0.06 0.05 0.04 0.03 0.02 0.03 0.02 0.02 0.02 0.02 0.02 0.02 0.02 0.01 0.01 0.01 0.01 0.01 0.01 0.00 0.01 0.02 0.03 0.04 0.03 0.02 0.03 0.03
0.03 0.04 0.05 0.04 0.03 0.04 0.05 0.05 0.04 0.04 0.06 0.06 0.05 0.06 0.05 0.03 0.04 0.04 0.03 0.03 0.02 0.02 0.04 0.04 0.03 0.03 0.03 0.02 0.01 0.01 0.01 0.01 0.01 0.01 0.01 0.01 0.02 0.03 0.04 0.03 0.02 0.03 0.03
0.04 0.05 0.06 0.05 0.04 0.03 0.03 0.05 0.06 0.07 0.07 0.05 0.04 0.05 0.05 0.03 0.02 0.02 0.03 0.05 0.05 0.04 0.04 0.05 0.05 0.04 0.04 0.04 0.02 0.01 0.01 0.01 0.01 0.01 0.01 0.01 0.03 0.04 0.05 0.03 0.03 0.03 0.03
0.04 0.05 0.05 0.06 0.06 0.05 0.03 0.04 0.05 0.07 0.07 0.04 0.03 0.03 0.05 0.04 0.03 0.02 0.03 0.04 0.04 0.04 0.03 0.04 0.05 0.04 0.03 0.03 0.02 0.02 0.02 0.02 0.01 0.01 0.01 0.01 0.03 0.05 0.07 0.05 0.04 0.03 0.03
0.04 0.04 0.04 0.06 0.06 0.05 0.04 0.03 0.03 0.05 0.05 0.03 0.03 0.03 0.03 0.04 0.04 0.04 0.03 0.02 0.02 0.02 0.02 0.02 0.03 0.03 0.02 0.02 0.02 0.03 0.03 0.03 0.03 0.01 0.01 0.02 0.04 0.05 0.06 0.06 0.04 0.03 0.03
0.03 0.04 0.07 0.07 0.05 0.05 0.05 0.04 0.03 0.03 0.04 0.05 0.03 0.03 0.02 0.02 0.02 0.03 0.03 0.03 0.02 0.01 0.01 0.01 0.02 0.02 0.02 0.01 0.01 0.02 0.03 0.03 0.03 0.03 0.02 0.02 0.03 0.04 0.04 0.04 0.05 0.03 0.03
0.04 0.05 0.10 0.09 0.05 0.05 0.05 0.05 0.04 0.03 0.04 0.05 0.04 0.04 0.03 0.02 0.02 0.02 0.02 0.03 0.03 0.02 0.01 0.01 0.01 0.02 0.02 0.01 0.01 0.01 0.02 0.02 0.03 0.03 0.03 0.03 0.03 0.03 0.03 0.03 0.04 0.04 0.04
0.04 0.06 0.12 0.14 0.07 0.06 0.07 0.07 0.05 0.03 0.04 0.05 0.05 0.04 0.03 0.02 0.02 0.03 0.02 0.02 0.02 0.02 0.02 0.01 0.01 0.01 0.02 0.02 0.01 0.01 0.01 0.02 0.02 0.02 0.02 0.04 0.04 0.03 0.03 0.03 0.03 0.03 0.05
0.03 0.06 0.11 0.14 0.10 0.08 0.08 0.07 0.07 0.06 0.04 0.05 0.06 0.05 0.04 0.03 0.02 0.03 0.02 0.02 0.02 0.02 0.02 0.02 0.01 0.01 0.01 0.01 0.01 0.01 0.01 0.02 0.03 0.03 0.03 0.04 0.04 0.03 0.02 0.02 0.03 0.04 0.05
0.03 0.06 0.11 0.13 0.09 0.08 0.08 0.07 0.07 0.07 0.07 0.05 0.06 0.07 0.05 0.04 0.03 0.03 0.03 0.02 0.02 0.02 0.02 0.02 0.02 0.02 0.01 0.01 0.01 0.01 0.02 0.02 0.02 0.03 0.03 0.04 0.04 0.03 0.02 0.01 0.01 0.02 0.04
0.03 0.06 0.10 0.11 0.08 0.06 0.07 0.07 0.06 0.07 0.07 0.06 0.06 0.08 0.07 0.05 0.04 0.04 0.03 0.03 0.03 0.03 0.02 0.02 0.02 0.02 0.02 0.01 0.01 0.01 0.02 0.02 0.03 0.03 0.04 0.04 0.05 0.04 0.03 0.02 0.01 0.01 0.02
0.03 0.04 0.09 0.09 0.07 0.05 0.05 0.05 0.04 0.05 0.06 0.06 0.06 0.06 0.07 0.07 0.05 0.05 0.04 0.04 0.03 0.03 0.03 0.02 0.02 0.02 0.02 0.02 0.02 0.02 0.02 0.02 0.03 0.03 0.04 0.04 0.04 0.04 0.03 0.03 0.02 0.02 0.02
0.03 0.03 0.06 0.08 0.06 0.05 0.05 0.05 0.04 0.04 0.05 0.05 0.05 0.04 0.06 0.07 0.08 0.07 0.06 0.04 0.04 0.03 0.03 0.03 0.03 0.02 0.02 0.03 0.04 0.04 0.03 0.03 0.03 0.03 0.04 0.04 0.04 0.04 0.03 0.02 0.02 0.02 0.03
0.02 0.02 0.04 0.06 0.04 0.04 0.05 0.04 0.03 0.03 0.04 0.05 0.05 0.04 0.04 0.05 0.06 0.08 0.09 0.08 0.06 0.05 0.05 0.04 0.04 0.03 0.03 0.03 0.04 0.04 0.05 0.05 0.04 0.04 0.04 0.04 0.03 0.03 0.03 0.03 0.02 0.02 0.02
0.02 0.01 0.03 0.04 0.03 0.03 0.05 0.05 0.04 0.04 0.03 0.03 0.03 0.04 0.04 0.03 0.05 0.07 0.08 0.09 0.09 0.08 0.07 0.06 0.05 0.05 0.04 0.03 0.04 0.05 0.05 0.04 0.04 0.05 0.04 0.03 0.02 0.01 0.01 0.02 0.02 0.01 0.01
0.03 0.02 0.02 0.03 0.02 0.02 0.04 0.05 0.04 0.05 0.04 0.04 0.03 0.03 0.03 0.03 0.04 0.05 0.06 0.08 0.09 0.09 0.08 0.08 0.07 0.07 0.06 0.05 0.04 0.05 0.05 0.03 0.04 0.05 0.05 0.03 0.01 0.01 0.01 0.01 0.01 0.01 0.01
0.05 0.05 0.03 0.02 0.02 0.01 0.02 0.03 0.03 0.03 0.04 0.04 0.03 0.03 0.03 0.03 0.04 0.04 0.04 0.06 0.08 0.09 0.09 0.10 0.10 0.09 0.09 0.08 0.07 0.05 0.05 0.04 0.04 0.04 0.05 0.04 0.02 0.00 0.00 0.00 0.00 0.01 0.01
0.03 0.06 0.07 0.04 0.02 0.01 0.02 0.03 0.02 0.02 0.03 0.03 0.03 0.03 0.03 0.03 0.03 0.03 0.03 0.03 0.04 0.05 0.06 0.06 0.07 0.08 0.07 0.08 0.08 0.07 0.06 0.05 0.05 0.05 0.05 0.04 0.02 0.01 0.01 0.00 0.00 0.00 0.00
MSLP
1016.51 1016.52 1016.62 1016.79 1017.02 1017.26 1017.47 1017.63 1017.72 1017.74 1017.69 1017.62 1017.56 1017.52 1017.54 1017.60 1017.68 1017.78 1017.84 1017.87 1017.86 1017.82 1017.77 1017.73 1017.73 1017.76 1017.83 1017.91 1017.98 1018.03 1018.04 1018.02 1017.97 1017.93 1017.91 1017.91 1017.96 1018.03 1018.10 1018.15 1018.17 1018.16 1018.11
1016.39 1016.46 1016.64 1016.89 1017.19 1017.49 1017.76 1017.95 1018.06 1018.07 1018.02 1017.94 1017.87 1017.83 1017.84 1017.91 1018.00 1018.10 1018.18 1018.22 1018.22 1018.19 1018.16 1018.15 1018.17 1018.22 1018.29 1018.37 1018.43 1018.46 1018.44 1018.38 1018.31 1018.26 1018.23 1018.25 1018.32 1018.41 1018.52 1018.60 1018.64 1018.63 1018.59
1016.22 1016.37 1016.61 1016.94 1017.31 1017.67 1017.99 1018.23 1018.37 1018.42 1018.39 1018.32 1018.26 1018.23 1018.24 1018.30 1018.38 1018.46 1018.52 1018.55 1018.55 1018.53 1018.51 1018.52 1018.56 1018.63 1018.71 1018.79 1018.83 1018.83 1018.78 1018.70 1018.61 1018.54 1018.52 1018.56 1018.65 1018.78 1018.91 1019.02 1019.08 1019.09 1019.05
1016.07 1016.29 1016.59 1016.98 1017.41 1017.82 1018.19 1018.48 1018.66 1018.75 1018.77 1018.74 1018.70 1018.69 1018.70 1018.74 1018.79 1018.84 1018.87 1018.87 1018.85 1018.83 1018.83 1018.85 1018.91 1019.00 1019.09 1019.16 1019.19 1019.17 1019.09 1018.99 1018.89 1018.82 1018.81 1018.87 1018.98 1019.14 1019.29 1019.43 1019.51 1019.53 1019.50
1016.00 1016.28 1016.65 1017.08 1017.54 1017.99 1018.38 1018.70 1018.93 1019.07 1019.13 1019.15 1019.16 1019.17 1019.18 1019.21 1019.23 1019.23 1019.22 1019.19 1019.15 1019.13 1019.13 1019.17 1019.25 1019.35 1019.45 1019.52 1019.54 1019.50 1019.41 1019.30 1019.19 1019.13 1019.14 1019.21 1019.35 1019.52 1019.70 1019.84 1019.93 1019.96 1019.94
1016.09 1016.43 1016.83 1017.28 1017.75 1018.20 1018.60 1018.92 1019.17 1019.35 1019.46 1019.54 1019.59 1019.63 1019.66 1019.68 1019.68 1019.65 1019.60 1019.54 1019.48 1019.45 1019.46 1019.51 1019.60 1019.71 1019.81 1019.88 1019.89 1019.84 1019.75 1019.64 1019.55 1019.50 1019.53 1019.62 1019.77 1019.95 1020.13 1020.28 1020.37 1020.40 1020.38
1016.40 1016.78 1017.20 1017.64 1018.08 1018.49 1018.86 1019.16 1019.40 1019.59 1019.74 1019.86 1019.96 1020.04 1020.10 1020.13 1020.12 1020.08 1020.01 1019.93 1019.86 1019.83 1019.84 1019.90 1020.00 1020.11 1020.20 1020.26 1020.26 1020.21 1020.12 1020.02 1019.95 1019.92 1019.97 1020.08 1020.24 1020.42 1020.59 1020.73 1020.81 1020.84 1020.81
1016.99 1017.39 1017.79 1018.19 1018.57 1018.90 1019.18 1019.42 1019.62 1019.80 1019.96 1020.12 1020.27 1020.39 1020.49 1020.55 1020.55 1020.51 1020.44 1020.36 1020.29 1020.26 1020.28 1020.34 1020.44 1020.53 1020.61 1020.65 1020.63 1020.58 1020.49 1020.41 1020.36 1020.37 1020.44 1020.56 1020.73 1020.91 1021.07 1021.19 1021.26 1021.28 1021.26
1017.88 1018.26 1018.62 1018.94 1019.21 1019.42 1019.59 1019.73 1019.86 1019.99 1020.15 1020.33 1020.51 1020.68 1020.83 1020.92 1020.96 1020.94 1020.88 1020.82 1020.76 1020.74 1020.76 1020.82 1020.90 1020.98 1021.03 1021.04 1021.00 1020.93 1020.85 1020.78 1020.76 1020.79 1020.89 1021.03 1021.21 1021.38 1021.53 1021.64 1021.70 1021.71 1021.70
1019.07 1019.39 1019.66 1019.86 1019.99 1020.05 1020.07 1020.08 1020.11 1020.19 1020.32 1020.50 1020.71 1020.93 1021.11 1021.25 1021.32 1021.33 1021.31 1021.26 1021.23 1021.22 1021.25 1021.31 1021.37 1021.42 1021.43 1021.40 1021.34 1021.25 1021.17 1021.11 1021.11 1021.18 1021.30 1021.46 1021.64 1021.81 1021.95 1022.05 1022.10 1022.12 1022.12
1020.50 1020.72 1020.87 1020.92 1020.87 1020.77 1020.63 1020.50 1020.42 1020.42 1020.51 1020.68 1020.91 1021.15 1021.36 1021.53 1021.63 1021.68 1021.68 1021.66 1021.65 1021.66 1021.69 1021.74 1021.79 1021.81 1021.79 1021.73 1021.63 1021.53 1021.44 1021.40 1021.42 1021.51 1021.65 1021.83 1022.01 1022.18 1022.31 1022.41 1022.46 1022.49 1022.51
1022.11 1022.20 1022.18 1022.06 1021.84 1021.55 1021.24 1020.97 1020.77 1020.69 1020.74 1020.89 1021.11 1021.36 1021.60 1021.78 1021.90 1021.96 1021.97 1021.97 1021.98 1022.01 1022.06 1022.11 1022.15 1022.15 1022.10 1022.01 1021.90 1021.78 1021.69 1021.65 1021.69 1021.80 1021.96 1022.15 1022.34 1022.50 1022.63 1022.71 1022.77 1022.81 1022.85
1023.82 1023.74 1023.54 1023.23 1022.83 1022.36 1021.90 1021.49 1021.19 1021.03 1021.03 1021.15 1021.36 1021.61 1021.84 1022.02 1022.13 1022.18 1022.20 1022.20 1022.22 1022.26 1022.32 1022.38 1022.42 1022.42 1022.37 1022.27 1022.14 1022.02 1021.94 1021.91 1021.97 1022.09 1022.27 1022.46 1022.65 1022.80 1022.91 1022.99 1023.04 1023.08 1023.14
1025.51 1025.25 1024.88 1024.39 1023.82 1023.20 1022.59 1022.07 1021.68 1021.46 1021.41 1021.51 1021.69 1021.91 1022.12 1022.27 1022.35 1022.37 1022.36 1022.35 1022.37 1022.41 1022.48 1022.57 1022.63 1022.64 1022.60 1022.51 1022.40 1022.28 1022.21 1022.20 1022.27 1022.40 1022.59 1022.78 1022.96 1023.09 1023.18 1023.23 1023.27 1023.31 1023.37
1027.09 1026.67 1026.14 1025.51 1024.79 1024.04 1023.32 1022.71 1022.26 1021.99 1021.90 1021.96 1022.12 1022.31 1022.47 1022.58 1022.61 1022.58 1022.52 1022.48 1022.47 1022.51 1022.59 1022.69 1022.78 1022.83 1022.82 1022.75 1022.66 1022.57 1022.51 1022.52 1022.60 1022.75 1022.93 1023.12 1023.28 1023.39 1023.46 1023.48 1023.49 1023.51 1023.56
1028.48 1027.95 1027.29 1026.54 1025.72 1024.88 1024.10 1023.43 1022.92 1022.62 1022.51 1022.55 1022.68 1022.83 1022.95 1022.99 1022.95 1022.85 1022.73 1022.63 1022.58 1022.60 1022.68 1022.79 1022.91 1022.99 1023.01 1022.98 1022.92 1022.86 1022.83 1022.85 1022.94 1023.09 1023.28 1023.46 1023.60 1023.69 1023.72 1023.71 1023.69 1023.68 1023.71
1029.67 1029.05 1028.33 1027.51 1026.64 1025.75 1024.93 1024.23 1023.70 1023.38 1023.25 1023.27 1023.38 1023.49 1023.55 1023.53 1023.42 1023.24 1023.04 1022.87 1022.76 1022.74 1022.79 1022.90 1023.03 1023.13 1023.18 1023.18 1023.15 1023.11 1023.10 1023.14 1023.24 1023.39 1023.57 1023.75 1023.88 1023.95 1023.96 1023.92 1023.87 1023.83 1023.84
1030.65 1030.02 1029.28 1028.45 1027.56 1026.67 1025.83 1025.13 1024.60 1024.27 1024.13 1024.13 1024.21 1024.29 1024.31 1024.22 1024.04 1023.78 1023.49 1023.23 1023.05 1022.96 1022.97 1023.05 1023.15 1023.25 1023.32 1023.33 1023.31 1023.29 1023.28 1023.33 1023.43 1023.58 1023.76 1023.93 1024.06 1024.12 1024.12 1024.07 1024.00 1023.94 1023.93
1031.49 1030.88 1030.18 1029.38 1028.53 1027.66 1026.84 1026.14 1025.62 1025.28 1025.13 1025.12 1025.18 1025.22 1025.19 1025.05 1024.80 1024.46 1024.08 1023.73 1023.46 1023.29 1023.22 1023.24 1023.31 1023.38 1023.42 1023.42 1023.40 1023.36 1023.35 1023.38 1023.47 1023.62 1023.79 1023.96 1024.09 1024.17 1024.17 1024.12 1024.05 1023.98 1023.96
1032.26 1031.71 1031.08 1030.36 1029.56 1028.74 1027.96 1027.28 1026.75 1026.41 1026.25 1026.21 1026.24 1026.25 1026.19 1026.00 1025.68 1025.27 1024.81 1024.37 1023.99 1023.72 1023.56 1023.50 1023.49 1023.51 1023.50 1023.47 1023.41 1023.34 1023.30 1023.30 1023.36 1023.49 1023.65 1023.82 1023.96 1024.05 1024.08 1024.05 1023.99 1023.94 1023.93
1033.03 1032.57 1032.02 1031.39 1030.67 1029.92 1029.18 1028.52 1027.99 1027.63 1027.44 1027.37 1027.36 1027.34 1027.24 1027.01 1026.65 1026.17 1025.63 1025.10 1024.63 1024.26 1023.99 1023.83 1023.74 1023.67 1023.60 1023.51 1023.40 1023.28 1023.19 1023.14 1023.16 1023.25 1023.39 1023.54 1023.68 1023.79 1023.84 1023.85 1023.82 1023.80 1023.80
1033.84 1033.47 1033.02 1032.48 1031.85 1031.16 1030.47 1029.82 1029.29 1028.91 1028.67 1028.56 1028.51 1028.44 1028.30 1028.03 1027.63 1027.10 1026.51 1025.90 1025.34 1024.87 1024.51 1024.25 1024.07 1023.92 1023.78 1023.62 1023.44 1023.26 1023.11 1022.99 1022.95 1022.98 1023.07 1023.20 1023.33 1023.44 1023.51 1023.55 1023.55 1023.56 1023.60
1034.72 1034.41 1034.05 1033.60 1033.06 1032.44 1031.78 1031.15 1030.61 1030.19 1029.91 1029.74 1029.63 1029.51 1029.33 1029.02 1028.58 1028.02 1027.38 1026.72 1026.09 1025.55 1025.11 1024.77 1024.51 1024.30 1024.09 1023.88 1023.64 1023.40 1023.17 1022.98 1022.86 1022.82 1022.84 1022.91 1023.00 1023.09 1023.16 1023.21 1023.24 1023.28 1023.34
1035.62 1035.37 1035.08 1034.71 1034.24 1033.68 1033.07 1032.45 1031.89 1031.43 1031.10 1030.86 1030.69 1030.52 1030.28 1029.95 1029.48 1028.89 1028.22 1027.53 1026.86 1026.27 1025.79 1025.40 1025.09 1024.84 1024.59 1024.34 1024.06 1023.76 1023.47 1023.21 1023.00 1022.87 1022.80 1022.79 1022.82 1022.86 1022.90 1022.94 1022.97 1023.01 1023.08
1036.50 1036.28 1036.05 1035.74 1035.34 1034.84 1034.26 1033.66 1033.09 1032.60 1032.21 1031.91 1031.67 1031.44 1031.16 1030.79 1030.30 1029.70 1029.02 1028.32 1027.64 1027.04 1026.53 1026.13 1025.81 1025.55 1025.29 1025.03 1024.73 1024.40 1024.06 1023.73 1023.44 1023.20 1023.03 1022.93 1022.87 1022.84 1022.82 1022.82 1022.83 1022.85 1022.91
1037.29 1037.10 1036.90 1036.64 1036.30 1035.86 1035.32 1034.75 1034.18 1033.66 1033.22 1032.86 1032.56 1032.27 1031.95 1031.55 1031.04 1030.45 1029.78 1029.08 1028.42 1027.83 1027.33 1026.94 1026.64 1026.39 1026.16 1025.91 1025.62 1025.28 1024.92 1024.54 1024.17 1023.85 1023.58 1023.37 1023.21 1023.09 1023.00 1022.94 1022.90 1022.89 1022.91
Thickness
5690 5690 5691 5694 5695 5697 5698 5699 5699 5700 5700 5701 5701 5701 5701 5701 5702 5703 5703 5703 5704 5704 5705 5705 5705 5704 5704 5705 5704 5705 5705 5705 5705 5706 5707 5707 5708 5708 5709 5709 5711 5712 5711
5685 5686 5687 5690 5691 5692 5693 5694 5695 5695 5696 5696 5696 5697 5697 5697 5697 5698 5698 5698 5699 5700 5700 5700 5700 5700 5700 5700 5699 5700 5700 5700 5701 5701 5702 5703 5703 5703 5704 5705 5706 5706 5706
5680 5681 5683 5685 5686 5687 5688 5689 5690 5690 5691 5691 5691 5692 5692 5692 5692 5693 5693 5693 5693 5694 5695 5695 5695 5695 5695 5695 5695 5695 5695 5696 5697 5698 5699 5700 5699 5698 5699 5700 5700 5701 5701
5675 5676 5678 5679 5680 5681 5682 5684 5685 5685 5686 5686 5686 5686 5686 5687 5687 5687 5687 5687 5688 5688 5689 5689 5690 5690 5690 5690 5690 5690 5690 5691 5692 5694 5696 5696 5695 5693 5694 5695 5695 5696 5696
5669 5670 5672 5673 5674 5675 5676 5678 5679 5680 5680 5681 5681 5681 5681 5681 5681 5681 5681 5682 5682 5682 5682 5683 5683 5683 5683 5684 5684 5685 5685 5686 5688 5690 5691 5690 5690 5689 5689 5689 5690 5690 5691
5663 5664 5665 5666 5668 5669 5670 5671 5672 5673 5674 5675 5675 5676 5676 5675 5675 5675 5675 5676 5676 5676 5676 5677 5677 5677 5677 5678 5678 5679 5680 5681 5684 5685 5685 5685 5685 5683 5683 5684 5684 5685 5686
5656 5657 5659 5659 5661 5662 5663 5664 5665 5666 5668 5668 5669 5669 5670 5669 5669 5669 5669 5669 5670 5670 5670 5670 5671 5671 5671 5672 5673 5673 5674 5675 5678 5679 5679 5679 5678 5678 5678 5678 5678 5679 5680
5648 5649 5651 5652 5653 5654 5656 5657 5658 5659 5661 5661 5661 5662 5663 5663 5663 5663 5663 5663 5663 5664 5664 5664 5664 5665 5665 5665 5666 5667 5667 5669 5671 5672 5672 5672 5671 5672 5672 5673 5673 5673 5673
5640 5642 5643 5645 5646 5647 5648 5649 5651 5652 5653 5653 5654 5654 5655 5655 5656 5656 5656 5656 5657 5657 5657 5657 5658 5658 5658 5658 5659 5659 5660 5661 5665 5665 5665 5665 5665 5665 5666 5666 5667 5667 5667
5632 5633 5635 5637 5639 5640 5641 5641 5642 5643 5644 5645 5646 5647 5647 5648 5648 5648 5649 5649 5649 5650 5650 5650 5650 5650 5650 5650 5651 5652 5653 5655 5657 5657 5657 5657 5658 5658 5659 5659 5660 5660 5661
5623 5624 5626 5629 5631 5632 5633 5633 5634 5635 5636 5637 5638 5639 5640 5640 5640 5640 5641 5641 5641 5641 5642 5642 5642 5642 5642 5643 5643 5644 5646 5647 5648 5649 5649 5649 5650 5651 5652 5652 5653 5653 5654
5614 5615 5617 5620 5622 5624 5625 5626 5626 5627 5628 5629 5630 5631 5632 5632 5633 5632 5632 5633 5633 5633 5634 5634 5634 5634 5635 5636 5636 5636 5638 5638 5639 5640 5640 5641 5643 5644 5644 5645 5645 5646 5646
5605 5606 5607 5610 5612 5615 5617 5618 5618 5619 5619 5620 5621 5622 5623 5624 5624 5624 5625 5625 5625 5625 5626 5626 5627 5627 5628 5628 5628 5629 5629 5630 5631 5631 5632 5632 5634 5636 5636 5637 5637 5638 5638
5596 5597 5598 5601 5604 5605 5607 5608 5610 5611 5611 5611 5611 5613 5614 5615 5615 5615 5616 5616 5617 5617 5618 5618 5619 5619 5620 5620 5620 5621 5621 5622 5622 5623 5623 5623 5625 5626 5628 5629 5629 5630 5630
5586 5587 5589 5592 5595 5596 5598 5599 5600 5601 5602 5602 5603 5604 5605 5605 5605 5605 5606 5606 5607 5608 5609 5610 5611 5611 5611 5611 5611 5612 5613 5613 5613 5614 5614 5614 5615 5617 5618 5620 5620 5621 5622
5577 5577 5579 5581 5584 5586 5588 5589 5590 5591 5592 5593 5594 5594 5595 5595 5595 5596 5596 5597 5597 5598 5599 5600 5601 5601 5601 5601 5602 5602 5603 5604 5604 5604 5605 5605 5606 5607 5608 5610 5611 5612 5613
5567 5568 5569 5571 5574 5577 5578 5579 5580 5581 5582 5583 5584 5584 5584 5585 5585 5585 5586 5586 5587 5587 5588 5589 5591 5591 5592 5592 5592 5592 5593 5594 5594 5594 5595 5595 5596 5597 5598 5599 5600 5601 5603
5558 5559 5560 5561 5564 5567 5568 5569 5570 5571 5572 5572 5573 5573 5573 5574 5575 5575 5576 5576 5576 5577 5578 5579 5580 5582 5582 5582 5583 5583 5583 5583 5584 5584 5584 5585 5586 5587 5588 5588 5589 5591 5592
5548 5550 5551 5552 5554 5556 5557 5558 5559 5560 5560 5561 5562 5562 5563 5564 5564 5565 5566 5566 5566 5567 5568 5568 5569 5570 5572 5572 5572 5573 5573 5573 5573 5573 5574 5574 5575 5575 5577 5578 5579 5579 5580
5539 5540 5541 5542 5543 5544 5546 5548 5548 5549 5549 5550 5550 5551 5552 5553 5554 5554 5555 5555 5556 5556 5557 5557 5558 5558 5560 5561 5561 5562 5563 5563 5562 5563 5563 5563 5564 5565 5565 5566 5567 5568 5569
5530 5531 5531 5531 5532 5533 5535 5537 5537 5538 5538 5538 5538 5539 5539 5541 5542 5543 5544 5544 5544 5545 5546 5546 5546 5547 5548 5548 5550 5553 5554 5553 5553 5552 5552 5552 5553 5554 5554 5554 5555 5556 5558
5520 5520 5521 5520 5521 5522 5522 5523 5524 5524 5525 5525 5525 5525 5526 5528 5529 5530 5531 5532 5532 5533 5534 5534 5534 5535 5536 5536 5538 5542 5545 5546 5544 5542 5542 5542 5543 5543 5543 5543 5543 5544 5545
5510 5509 5510 5509 5509 5510 5510 5511 5511 5511 5513 5513 5513 5513 5513 5515 5516 5517 5518 5519 5519 5520 5521 5521 5522 5523 5524 5524 5525 5528 5532 5537 5535 5534 5532 5532 5532 5532 5532 5532 5532 5532 5533
5499 5498 5498 5498 5497 5497 5498 5499 5500 5501 5502 5501 5500 5500 5500 5501 5502 5503 5504 5504 5506 5506 5508 5508 5509 5510 5511 5513 5512 5512 5514 5518 5519 5524 5524 5523 5522 5522 5521 5521 5521 5521 5522
5488 5487 5486 5486 5485 5485 5486 5486 5487 5487 5488 5487 5486 5486 5487 5488 5488 5488 5489 5490 5491 5493 5494 5495 5495 5496 5497 5499 5500 5500 5501 5502 5505 5508 5513 5513 5511 5511 5510 5509 5509 5510 5510
5476 5475 5474 5474 5474 5473 5473 5473 5474 5475 5475 5475 5474 5474 5474 5474 5474 5474 5475 5475 5477 5478 5479 5480 5481 5483 5484 5485 5485 5486 5487 5489 5491 5494 5498 5500 5501 5500 5498 5497 5497 5498 5498